TimePDT,TemperatureF,Dew PointF,Humidity,Sea Level PressureIn,VisibilityMPH,Wind Direction,Wind SpeedMPH,Gust SpeedMPH,PrecipitationIn,Events,Conditions,WindDirDegrees,DateUTC
12:53 AM,69.1,57.9,68,29.88,10.0,Calm,Calm,-,N/A,,Clear,0,2013-09-24 07:53:00
1:53 AM,66.0,57.0,73,29.89,10.0,Calm,Calm,-,N/A,,Clear,0,2013-09-24 08:53:00
2:53 AM,64.9,55.9,73,29.88,10.0,East,3.5,-,N/A,,Clear,80,2013-09-24 09:53:00
3:53 AM,64.9,52.0,63,29.88,10.0,Calm,Calm,-,N/A,,Clear,0,2013-09-24 10:53:00
4:53 AM,62.1,54.0,75,29.87,10.0,Calm,Calm,-,N/A,,Clear,0,2013-09-24 11:53:00
5:53 AM,62.1,51.1,67,29.87,10.0,Calm,Calm,-,N/A,,Clear,0,2013-09-24 12:53:00
6:53 AM,61.0,52.0,72,29.88,10.0,Calm,Calm,-,N/A,,Clear,0,2013-09-24 13:53:00
7:53 AM,66.9,52.0,59,29.89,10.0,Calm,Calm,-,N/A,,Clear,0,2013-09-24 14:53:00
8:53 AM,73.9,46.0,37,29.91,10.0,Calm,Calm,-,N/A,,Clear,0,2013-09-24 15:53:00
9:53 AM,80.1,45.0,29,29.91,10.0,Calm,Calm,-,N/A,,Clear,0,2013-09-24 16:53:00
10:53 AM,82.9,46.9,28,29.91,10.0,SSW,4.6,-,N/A,,Clear,210,2013-09-24 17:53:00
11:53 AM,84.9,46.9,27,29.89,10.0,Calm,Calm,-,N/A,,Clear,0,2013-09-24 18:53:00
12:53 PM,84.0,50.0,31,29.88,10.0,South,10.4,-,N/A,,Clear,190,2013-09-24 19:53:00
1:53 PM,84.9,48.0,28,29.86,10.0,SSW,10.4,-,N/A,,Clear,200,2013-09-24 20:53:00
2:53 PM,84.9,46.9,27,29.84,10.0,SSW,10.4,-,N/A,,Clear,210,2013-09-24 21:53:00
3:53 PM,87.1,43.0,21,29.83,10.0,South,9.2,-,N/A,,Clear,180,2013-09-24 22:53:00
4:53 PM,84.9,41.0,21,29.82,10.0,SSW,9.2,-,N/A,,Clear,200,2013-09-24 23:53:00
5:53 PM,84.0,37.9,19,29.83,10.0,West,6.9,-,N/A,,Clear,280,2013-09-25 00:53:00
6:53 PM,79.0,39.9,25,29.82,10.0,Calm,Calm,-,N/A,,Clear,0,2013-09-25 01:53:00
7:53 PM,75.0,48.9,40,29.83,10.0,South,3.5,-,N/A,,Clear,190,2013-09-25 02:53:00
8:53 PM,71.1,57.9,63,29.86,10.0,South,3.5,-,N/A,,Clear,180,2013-09-25 03:53:00
9:53 PM,69.1,61.0,75,29.86,10.0,SE,3.5,-,N/A,,Clear,140,2013-09-25 04:53:00
10:53 PM,69.1,61.0,75,29.86,10.0,Calm,Calm,-,N/A,,Clear,0,2013-09-25 05:53:00
11:53 PM,68.0,61.0,78,29.85,10.0,Calm,Calm,-,N/A,,Clear,0,2013-09-25 06:53:00